DELTA 1 DEB

Satellite information

Favourite Embed

Satellite Type and Status

DEBRISIN ORBIT

Key statistics

Satellite DELTA 1 DEB at a glance.

Uptime

18290

Days in orbit

Revolutions

≈ 13.2

Per day

Orbit

SSO

Sun Synchronous Orbit

Inclination

99.5

Latest

Satellite identification and parameters

Extended collection of information and parameters for DELTA 1 DEB.

Object identification

Identified? True

Debris? True

Object name: DELTA 1 DEB

International designator: 1975-052BW

Object number (NORAD): 21352

Object ID (CCSDS): 21352

Country: UNITED STATES OF AMERICA (US)

Current information (Y/N): Y

RCS size: SMALL

Orbital parameters

Period: 109.263 minutes

Inclination: 99.5358 deg

SMA: 7570.82 km

Apoapsis: 1407.168 km

Periapsis: 978.203 km

RAAN: 267.7915 deg

Eccentricy: 0.0283301

Argument of periapsis: 300.274 deg

Mean anomaly: 70.2321 deg

Mean motion: 13.17917864 rev/day

Mean motion (dot): 0.00000841 rev/day2

B* drag term: 0.0018385 1/REarth

Two-line elements (TLE)

Creation date: July 8, 2025, 5:26 p.m.

Reference frame: TEME

Reference center: EARTH

Epoch: July 8, 2025, 11:58 a.m. UTC

TLE line 0: 0 DELTA 1 DEB

TLE line 1: 1 21352U 75052BW 25189.49867144 .00000841 00000-0 18385-2 0 9990

TLE line 2: 2 21352 99.5358 267.7915 0283301 300.2740 70.2321 13.17917864628800

Live tracking on map

Real-time ground track for satellite DELTA 1 DEB.

In-orbit conjunctions

A list of the most updated potential collisions computed for object DELTA 1 DEB.

Target Orbit TCA Probability of collision Miss distance Type
COSMOS 1829 LEO 2024-11-19 03:00:00 0.0001220053 181.0 (m) PAYLOAD

Associated space launch

Experimental meteorological satellite

DELTA 1 DEB was lifted into orbit during the mission ‘Delta 2910 | Nimbus 6’, on board a Delta 2910 space rocket.

The launch took place on June 12, 1975, 8:12 a.m. from Space Launch Complex 2W.

For more information about the launch, click the button.

Launch to space Delta 2910 | Nimbus 6
Delta 2910 | Nimbus 6

Agency: N/A

Status: Launch Successful

Launch date: June 12, 1975, 8:12 a.m. UTC

Rocket: Delta 2910

Launch pad: Space Launch Complex 2W

Location: Vandenberg SFB, CA, USA

...

Latest news about this satellite

There are no fresh news available about this satellite. Check back as we update our databases every day.


Newsletter sign-up

Weekly statistics, charts and insights to help you stay on top of the space industry.